Theta_e
326 325 323 324 328 330 332 334 337 338 336 336 336 335 333 334 332 331 328 324 322 321
324 323 324 326 331 333 333 335 336 336 336 336 336 335 334 332 330 331 329 324 322 321
324 325 326 331 332 333 331 335 335 334 334 334 334 334 334 329 331 329 324 323 322 320
324 327 330 332 333 333 334 334 335 335 334 333 333 334 331 327 327 325 323 322 322 321
327 330 331 332 333 333 334 335 336 335 335 335 333 331 328 327 327 325 322 321 321 321
331 332 332 332 333 334 334 335 336 336 335 334 332 328 327 328 326 324 322 321 321 321
334 333 332 333 335 335 336 335 335 335 334 333 331 329 327 324 323 322 322 321 321 321
336 335 335 335 336 337 336 334 334 332 331 330 327 327 325 324 322 321 320 319 320 320
334 335 334 333 333 333 329 329 328 327 325 322 321 306 309 319 321 320 318 318 317 318
330 329 329 330 329 328 327 325 322 321 320 316 315 302 304 309 320 319 318 318 320 321
329 328 327 327 326 325 324 322 318 317 316 316 312 301 302 308 317 316 316 320 321 321
329 326 325 324 325 324 320 318 317 317 316 317 314 301 301 312 315 315 316 320 320 321
328 326 324 323 323 321 320 318 319 315 316 312 315 300 301 312 317 317 318 317 316 303
327 325 324 323 324 322 321 317 315 315 315 316 314 310 300 304 315 317 318 317 315 311
Wind_Speed
15 9 8 9 6 5 5 6 9 8 7 7 7 6 6 5 5 5 4 7 5 3
8 8 10 9 7 5 5 5 8 8 7 7 7 7 7 5 6 6 5 6 6 3
12 9 8 8 8 8 6 7 9 9 8 7 6 7 7 4 5 7 4 4 6 4
7 7 9 8 9 9 9 9 10 10 8 7 7 6 6 6 6 6 6 4 6 6
8 9 9 9 9 10 10 9 10 10 9 9 8 8 8 7 6 7 6 6 6 6
11 12 11 11 11 10 10 10 9 10 10 10 9 8 6 7 7 6 7 7 7 6
13 12 11 10 10 11 11 11 10 10 10 9 10 8 6 6 6 6 5 6 6 6
9 9 10 11 10 11 11 11 10 9 7 7 7 5 7 6 6 6 5 4 5 5
10 10 10 11 12 12 9 9 10 9 9 7 4 6 9 8 6 5 5 5 5 5
11 12 11 12 12 11 11 10 8 9 9 7 6 7 9 9 5 5 5 5 6 5
13 14 13 13 13 10 9 11 9 8 8 8 5 7 9 10 6 5 4 5 6 6
14 15 15 13 12 10 10 9 7 7 8 8 5 8 9 9 5 5 4 3 4 5
14 15 14 12 12 6 10 9 8 8 8 7 7 8 9 7 5 6 3 3 2 2
13 13 14 11 10 10 11 10 8 9 6 7 5 4 8 9 4 5 4 2 2 2
Wind_Direction
201 198 197 199 186 190 182 183 167 175 164 160 150 150 150 158 145 162 164 168 162 166
194 177 187 186 174 171 157 159 168 154 150 152 156 155 162 156 159 160 162 166 161 157
192 181 166 153 165 166 148 160 158 149 151 148 149 159 155 149 145 146 156 146 160 164
171 167 157 166 169 166 154 164 160 154 146 154 157 153 140 140 141 154 151 157 167 184
155 157 161 167 163 156 163 160 156 146 147 161 156 146 145 148 160 160 169 178 174 186
162 166 165 163 158 158 151 152 147 150 157 155 149 147 159 164 165 174 184 182 178 184
160 161 159 153 149 150 152 144 148 156 158 155 151 160 154 152 166 182 187 187 186 178
141 141 136 138 143 145 144 150 146 136 134 131 135 153 158 162 169 176 173 177 176 177
140 133 135 140 138 133 126 130 134 124 126 117 103 136 143 145 151 156 164 166 161 155
141 138 142 132 131 127 132 117 123 111 116 113 123 128 121 126 136 149 159 154 150 153
144 136 132 130 125 125 126 129 122 116 111 114 103 125 126 123 120 118 143 148 156 165
146 129 125 125 123 123 121 114 107 114 116 119 122 152 146 116 111 111 121 126 159 162
144 132 125 125 126 117 111 108 110 104 113 113 126 145 137 123 127 132 121 111 127 33
133 130 120 117 118 115 116 110 109 113 109 120 106 125 152 144 139 146 137 151 144 119